Wind_Speed
13 11 7 4 5 8 12 15 15 17 16 16 15 15 14 12 11 11 10 9 8 8 8 7 6 5 4 3 2 2 2 1 1 1 2 2 2 2 2 2 2 2 2
14 10 7 2 3 7 10 13 14 16 16 16 15 15 14 13 12 11 11 11 10 9 9 8 7 6 5 4 3 2 2 2 2 2 2 2 2 2 2 2 2 2 3
13 12 8 3 2 5 9 10 12 15 16 16 15 15 14 14 12 12 12 12 11 10 9 9 8 7 5 5 4 3 2 2 2 2 2 1 1 2 2 2 2 3 3
13 11 7 3 1 5 7 10 12 14 15 16 15 15 15 14 13 13 13 12 11 11 10 9 8 7 6 5 4 3 2 1 1 0 0 1 1 2 2 2 3 3 3
12 9 6 3 1 3 6 9 12 14 15 15 15 15 15 14 13 13 13 12 12 11 11 10 9 8 8 6 5 4 3 3 2 2 2 2 3 3 3 4 4 4 5
11 8 5 3 1 2 5 8 12 13 14 15 15 14 15 15 14 14 13 13 13 12 12 11 10 10 9 8 7 6 6 5 5 5 5 5 5 5 6 6 6 7 7
8 7 6 3 2 3 5 8 10 12 14 14 14 15 15 15 15 14 14 14 14 13 12 12 11 11 11 10 9 9 9 9 8 8 8 8 8 8 9 9 10 10 10
6 6 5 4 3 3 4 7 10 11 12 13 14 15 15 15 15 14 15 15 15 14 13 13 13 12 12 12 12 12 12 12 12 12 12 12 12 12 12 13 13 13 13
6 5 5 4 3 3 4 6 9 11 12 13 14 14 15 16 15 15 16 16 16 15 15 15 14 14 15 14 14 14 14 14 14 14 14 15 15 15 15 16 16 16 16
4 3 3 3 2 2 3 5 7 9 10 12 13 14 15 15 15 15 16 16 16 17 17 16 17 17 17 17 17 17 17 17 17 17 17 18 18 18 19 19 19 19 19
4 3 2 1 1 0 2 2 4 6 9 11 11 13 14 15 16 16 16 16 17 18 18 18 19 19 19 19 20 20 20 20 20 20 21 21 21 21 22 22 22 22 22
5 4 3 2 2 2 2 4 5 6 8 9 11 13 14 15 16 17 18 18 19 20 20 20 20 21 21 22 22 23 23 23 23 23 23 24 24 25 25 25 25 25 25
6 5 4 4 4 4 4 5 6 7 8 10 11 12 13 14 16 18 19 20 20 21 21 22 22 23 24 24 24 25 25 25 25 25 26 26 27 28 28 29 29 29 29
7 5 4 5 5 6 5 6 7 8 9 10 11 13 14 15 16 18 19 21 21 22 23 24 25 26 26 26 27 27 27 28 28 28 29 29 30 30 31 32 32 32 32
8 6 6 6 6 7 7 8 9 10 11 12 13 14 15 16 18 19 20 22 23 24 26 26 26 27 28 29 29 29 29 30 30 31 31 32 33 33 34 35 35 35 35
9 8 8 7 8 9 10 10 11 12 13 14 14 16 17 18 20 21 22 24 26 27 28 28 29 30 31 32 33 33 33 33 33 34 34 35 36 37 37 38 38 38 39
10 10 10 10 10 11 11 12 13 15 15 16 17 18 20 21 22 24 25 26 27 29 31 32 32 33 34 34 35 36 36 36 36 36 37 37 39 40 41 41 42 42 42
11 11 12 12 13 13 14 15 16 17 18 19 20 22 22 24 26 26 27 29 30 30 31 32 34 35 34 34 35 36 36 37 38 39 40 41 42 42 43 43 44 44 44
13 13 13 14 14 15 16 18 19 20 21 21 23 24 25 26 27 28 29 29 31 31 33 34 34 35 35 36 36 36 37 38 39 40 40 41 42 42 44 45 45 45 46
15 15 15 16 17 17 18 19 21 22 23 23 24 26 27 27 28 29 30 31 32 33 34 34 33 34 35 37 38 39 39 40 41 42 42 42 43 43 45 46 47 48 49
18 18 18 18 19 19 20 21 22 24 25 26 26 27 27 28 30 30 30 31 32 32 34 35 35 37 37 38 39 40 41 42 43 44 44 45 46 47 48 49 51 52 53
19 19 19 20 20 21 22 23 24 25 26 28 28 29 30 30 31 33 34 33 34 35 36 37 38 38 39 39 40 41 42 43 44 46 47 48 49 51 52 54 56 57 58
19 20 21 21 22 23 24 25 26 27 28 29 30 31 32 33 34 35 36 36 36 36 37 38 39 40 41 41 42 43 44 46 47 48 50 51 52 54 56 58 60 61 62
21 22 22 23 23 24 26 27 28 29 30 31 32 33 34 35 35 36 37 37 37 38 39 40 41 42 43 44 45 46 48 49 50 52 53 55 56 58 59 60 62 63 64
21 21 22 23 24 25 26 28 29 30 31 32 33 34 35 35 36 37 38 39 39 40 41 42 44 45 46 48 49 51 52 53 54 56 57 58 59 60 61 62 62 62 62
21 22 23 24 25 26 27 29 30 31 32 33 34 35 36 37 38 39 39 40 41 43 44 45 46 48 49 51 52 54 55 56 57 58 58 59 59 59 60 59 59 59 59
Wind_Direction
347 342 343 300 224 200 194 191 197 199 200 202 204 203 204 204 209 206 201 200 198 192 187 182 182 180 179 179 175 159 138 128 123 107 88 73 60 48 37 25 8 358 351
356 352 356 341 213 196 190 188 201 202 198 199 200 202 205 204 209 205 201 201 196 191 187 185 185 186 187 187 182 169 154 138 119 111 104 88 59 41 31 30 21 6 356
356 359 359 23 126 168 181 188 195 196 198 199 200 202 205 207 207 203 200 196 195 192 190 190 191 194 196 195 189 179 164 145 128 116 107 80 39 16 10 11 7 3 356
358 359 2 25 125 161 173 186 194 196 197 196 198 198 202 203 200 199 195 193 193 194 196 198 199 202 207 207 202 196 189 173 166 161 91 344 339 332 333 336 337 342 340
2 1 3 29 89 177 185 187 192 197 196 194 195 196 199 196 194 196 196 196 197 200 204 207 208 212 216 217 218 219 228 239 254 270 282 295 296 294 298 302 311 319 319
5 11 17 39 79 164 183 183 186 191 190 191 193 194 195 196 197 199 201 203 206 210 213 214 216 220 224 227 231 238 246 256 266 275 281 286 286 286 289 292 297 301 306
10 21 33 56 89 130 162 173 175 181 185 190 193 197 200 199 201 204 209 210 212 217 219 221 223 227 232 237 241 247 254 261 268 273 277 279 280 281 283 286 290 292 294
13 24 39 56 80 122 152 166 176 180 184 190 195 198 200 204 208 212 216 216 218 222 225 228 231 235 240 244 248 252 257 263 268 272 275 278 279 279 281 283 285 286 288
9 21 36 55 69 100 143 165 176 182 189 194 196 200 206 210 213 216 218 222 225 228 231 236 239 243 247 250 253 256 260 263 267 270 274 277 280 280 281 282 283 283 284
352 15 25 35 57 101 141 167 178 187 193 199 203 207 209 212 216 218 221 226 231 234 238 242 245 249 251 254 256 258 261 265 268 270 273 276 278 279 280 280 281 282 282
334 334 336 351 3 69 153 171 191 198 204 207 210 213 216 217 219 222 226 232 237 240 243 247 250 252 255 258 259 261 263 266 269 271 273 275 276 277 278 279 280 281 281
322 310 305 293 285 277 228 210 208 207 213 218 222 223 224 224 228 231 235 239 243 246 248 250 251 254 257 260 262 265 266 269 271 272 274 275 276 277 278 278 279 279 280
318 301 291 282 274 271 252 234 232 227 227 229 228 228 229 233 237 240 243 246 247 250 252 254 256 258 260 262 265 267 269 270 272 273 274 275 276 277 278 278 278 279 280
314 303 282 275 266 267 263 251 242 239 241 246 244 239 240 242 245 249 250 251 252 254 256 258 259 260 263 265 266 268 270 271 272 273 275 276 276 277 278 278 278 279 280
294 294 287 277 270 269 269 263 255 253 255 257 255 254 254 253 254 258 258 257 258 260 260 261 261 263 265 267 268 271 272 273 274 275 275 276 276 277 277 277 277 278 279
285 283 280 276 270 268 266 265 263 263 263 265 265 262 264 264 262 263 265 265 263 264 265 266 267 267 268 268 271 271 273 274 273 273 274 274 275 276 277 277 277 277 278
277 279 276 274 272 269 269 267 265 266 267 268 269 267 270 270 268 268 269 270 268 269 268 267 266 267 269 270 271 271 273 274 274 273 273 274 275 276 277 277 277 278 278
273 273 274 275 275 273 272 272 271 271 271 271 272 271 272 273 271 270 270 270 270 272 272 270 268 268 271 272 272 273 273 274 272 271 271 273 274 275 275 275 275 275 276
271 271 273 276 276 277 278 278 278 279 278 278 279 279 278 277 275 275 275 275 275 276 276 274 274 273 273 272 273 273 274 273 273 273 273 274 274 274 274 274 275 275 275
273 273 273 276 277 278 280 280 280 281 282 281 283 283 282 282 281 281 282 280 279 278 278 277 277 277 275 275 275 275 275 274 276 276 276 276 276 276 276 276 276 275 275
273 272 272 273 275 277 277 279 281 281 282 283 285 285 285 286 286 286 288 284 282 281 280 279 279 278 277 276 276 276 276 276 277 277 277 277 277 277 277 277 277 277 277
270 267 269 272 274 276 278 279 282 282 283 283 284 285 286 287 287 286 287 285 284 284 282 281 281 281 279 278 278 278 278 278 279 279 279 279 279 279 279 279 279 279 279
268 269 270 271 274 276 279 280 282 283 284 285 285 285 286 286 287 287 287 286 285 284 284 283 283 282 281 281 281 281 280 281 281 281 281 281 281 281 281 280 280 280 279
267 269 271 273 275 277 279 282 283 283 284 285 286 286 286 287 287 287 287 286 286 286 286 285 285 285 284 284 284 284 283 283 283 283 283 283 283 282 282 282 281 281 280
267 269 272 275 277 278 280 281 283 284 286 286 287 287 287 288 288 288 288 288 288 288 287 286 286 286 285 286 286 286 286 285 285 285 285 285 284 284 284 284 283 283 282
269 271 273 275 277 280 282 283 284 285 286 286 287 287 287 288 288 288 289 289 289 288 288 287 287 287 287 287 287 287 287 286 286 286 286 286 286 285 285 284 284 284 283
Height
5840 5838 5835 5833 5834 5836 5838 5841 5842 5848 5852 5856 5859 5862 5865 5868 5869 5871 5873 5875 5876 5877 5879 5880 5881 5881 5882 5882 5882 5882 5882 5882 5881 5881 5881 5881 5881 5881 5881 5880 5880 5879 5879
5840 5838 5836 5834 5833 5834 5837 5840 5843 5847 5850 5854 5857 5860 5863 5865 5868 5870 5872 5874 5875 5876 5878 5879 5880 5881 5881 5882 5882 5882 5882 5882 5881 5881 5881 5881 5881 5880 5880 5880 5880 5879 5878
5840 5837 5835 5834 5833 5834 5837 5839 5842 5845 5849 5852 5855 5858 5861 5863 5866 5868 5870 5872 5874 5875 5877 5878 5879 5880 5881 5881 5882 5882 5882 5881 5881 5881 5881 5881 5880 5880 5880 5880 5879 5879 5878
5839 5837 5835 5834 5834 5834 5836 5838 5841 5844 5847 5850 5853 5856 5859 5861 5864 5867 5869 5871 5872 5874 5875 5876 5878 5879 5879 5880 5880 5881 5881 5881 5881 5880 5880 5880 5880 5879 5879 5879 5878 5878 5877
5839 5837 5835 5835 5834 5835 5835 5837 5839 5842 5845 5849 5851 5854 5857 5860 5863 5865 5867 5869 5871 5873 5874 5875 5876 5877 5878 5879 5879 5879 5879 5879 5879 5879 5879 5878 5878 5878 5878 5877 5877 5876 5876
5839 5837 5836 5835 5835 5835 5835 5836 5838 5841 5844 5847 5850 5853 5856 5858 5861 5864 5866 5868 5869 5871 5872 5873 5874 5875 5876 5876 5877 5877 5877 5877 5877 5877 5877 5877 5876 5876 5876 5875 5874 5874 5874
5838 5838 5837 5836 5835 5835 5835 5836 5838 5840 5843 5846 5849 5852 5855 5857 5860 5862 5864 5866 5867 5869 5870 5871 5872 5873 5874 5874 5874 5874 5874 5875 5875 5875 5874 5874 5874 5873 5873 5872 5872 5871 5870
5838 5838 5837 5837 5836 5836 5836 5836 5837 5840 5843 5845 5848 5851 5853 5856 5858 5860 5862 5864 5865 5867 5868 5869 5870 5870 5871 5871 5871 5871 5871 5871 5871 5871 5871 5870 5870 5870 5869 5869 5868 5867 5867
5839 5838 5838 5838 5837 5836 5836 5837 5838 5840 5842 5844 5846 5849 5851 5854 5856 5858 5860 5861 5862 5864 5865 5866 5867 5867 5867 5868 5868 5868 5868 5868 5867 5867 5866 5866 5866 5865 5865 5864 5864 5864 5862
5839 5839 5838 5838 5837 5837 5837 5838 5838 5840 5841 5843 5845 5847 5849 5851 5853 5855 5857 5858 5859 5860 5861 5862 5863 5863 5864 5864 5864 5864 5863 5863 5863 5862 5861 5861 5860 5860 5859 5859 5858 5857 5857
5839 5838 5838 5838 5838 5838 5838 5838 5838 5840 5842 5843 5845 5846 5848 5849 5851 5853 5854 5855 5856 5857 5857 5858 5859 5859 5859 5859 5859 5859 5858 5858 5857 5857 5856 5855 5854 5854 5853 5852 5851 5851 5850
5839 5838 5837 5838 5838 5838 5838 5838 5839 5840 5841 5842 5843 5844 5845 5847 5848 5849 5850 5851 5852 5852 5853 5853 5854 5854 5854 5854 5854 5853 5853 5852 5851 5850 5850 5849 5848 5847 5846 5845 5844 5843 5842
5837 5836 5836 5837 5837 5837 5837 5837 5838 5839 5839 5840 5841 5841 5842 5844 5845 5845 5846 5847 5847 5848 5848 5848 5848 5848 5848 5847 5847 5846 5846 5845 5844 5843 5842 5841 5840 5839 5838 5837 5836 5835 5834
5835 5835 5835 5835 5835 5835 5836 5836 5836 5837 5837 5838 5838 5838 5839 5840 5840 5841 5841 5841 5842 5842 5842 5842 5842 5842 5841 5840 5839 5839 5838 5838 5837 5836 5835 5833 5832 5831 5830 5829 5828 5826 5826
5832 5833 5832 5832 5832 5833 5833 5833 5833 5834 5834 5834 5834 5835 5835 5835 5835 5836 5836 5836 5836 5836 5835 5835 5834 5834 5833 5832 5831 5830 5830 5829 5828 5827 5826 5825 5823 5822 5820 5819 5818 5816 5815
5829 5829 5829 5829 5830 5830 5830 5830 5830 5830 5830 5830 5830 5830 5830 5830 5830 5830 5830 5830 5829 5829 5827 5827 5826 5825 5824 5823 5822 5821 5820 5820 5819 5817 5816 5815 5813 5812 5810 5809 5807 5806 5805
5825 5826 5826 5826 5826 5826 5826 5826 5827 5826 5826 5825 5825 5824 5824 5824 5824 5823 5823 5822 5821 5820 5818 5817 5816 5815 5814 5813 5812 5811 5810 5809 5808 5807 5805 5804 5802 5801 5799 5797 5796 5795 5793
5821 5821 5822 5822 5821 5821 5821 5821 5821 5821 5821 5820 5819 5818 5818 5817 5816 5815 5814 5813 5812 5810 5808 5807 5806 5805 5804 5803 5802 5800 5799 5798 5796 5795 5793 5792 5790 5788 5787 5785 5784 5782 5780
5816 5816 5817 5817 5816 5816 5816 5815 5815 5814 5814 5813 5812 5811 5810 5809 5808 5807 5805 5803 5802 5801 5799 5798 5796 5794 5794 5792 5791 5789 5788 5786 5784 5782 5781 5779 5777 5775 5773 5772 5770 5769 5767
5811 5811 5811 5811 5810 5810 5810 5809 5809 5807 5806 5805 5804 5803 5802 5800 5799 5798 5796 5795 5793 5791 5789 5787 5785 5784 5782 5781 5780 5778 5776 5774 5772 5770 5768 5766 5764 5762 5759 5757 5756 5754 5752
5805 5805 5805 5805 5804 5804 5803 5803 5802 5800 5799 5798 5797 5795 5794 5792 5791 5789 5787 5786 5784 5782 5780 5777 5776 5774 5772 5770 5768 5766 5764 5762 5759 5757 5754 5752 5749 5747 5744 5742 5739 5737 5735
5799 5799 5799 5798 5798 5797 5797 5796 5795 5794 5792 5791 5789 5788 5786 5784 5782 5780 5778 5776 5773 5771 5769 5767 5765 5763 5761 5758 5756 5754 5751 5748 5746 5743 5740 5737 5734 5731 5728 5725 5722 5719 5716
5793 5793 5793 5792 5792 5791 5790 5789 5787 5786 5784 5782 5781 5779 5777 5775 5772 5770 5768 5765 5763 5761 5758 5756 5754 5751 5749 5746 5743 5740 5737 5734 5731 5728 5725 5721 5718 5714 5710 5706 5702 5699 5695
5787 5786 5786 5785 5784 5783 5782 5781 5779 5777 5776 5774 5771 5769 5767 5765 5762 5760 5757 5755 5752 5750 5747 5744 5741 5738 5735 5732 5729 5725 5722 5719 5715 5712 5708 5704 5700 5696 5691 5687 5682 5677 5673
5780 5779 5779 5778 5777 5775 5774 5772 5771 5769 5767 5764 5762 5759 5757 5754 5752 5749 5746 5744 5741 5738 5735 5731 5728 5725 5721 5717 5714 5710 5706 5702 5698 5694 5689 5685 5680 5676 5671 5666 5661 5656 5652
5772 5772 5771 5770 5769 5768 5766 5764 5762 5760 5758 5755 5752 5750 5747 5744 5741 5738 5735 5731 5728 5725 5721 5717 5714 5710 5706 5702 5698 5693 5689 5684 5680 5675 5670 5665 5660 5656 5651 5646 5641 5636 5631